Regional Weather Roundup
Issued by NWS

Home | Current Version | Previous Version | Text Only | Print | Product List | Glossary Off
Versions: 1 2 3 4 5 6 7 8 9 10 11 12 13 14 15 16 17 18 19 20 21 22 23 24 25 26 27 28 29 30 31 32 33 34 35 36 37 38 39 40 41 42 43 44 45 46 47 48 49 50

000
ASUS45 KTFX 022204
RWRMT
MONTANA HOURLY WEATHER ROUNDUP
NATIONAL WEATHER SERVICE GREAT FALLS MT
304 PM MST MON MAR 2 2015

NOTE: "FAIR" INDICATES FEW OR NO CLOUDS BELOW 12000 FEET WITH NO
SIGNIFICANT WEATHER AND/OR OBSTRUCTIONS TO VISIBILITY.

* THESE STATIONS ARE NOT UNDER NWS QUALITY CONTROL. THEY DO NOT
   REPORT WEATHER SUCH AS PRECIPITATION OR FOG.

MTZ001>007-043-022300-
WEST OF THE DIVIDE
CITY           SKY/WX    TMP DP  RH WIND       PRES   REMARKS
KALISPELL      CLOUDY    32  12  43 NE22G32   29.90S WCI  19
MISSOULA       CLOUDY    34  23  64 N8        29.82F WCI  27
BUTTE          CLOUDY    30  12  47 W14       29.70F WCI  19
MULLAN PASS    SNOW      21  19  92 CALM      29.71F VSB 1/2
* ANACONDA     CLOUDY    30  16  56 N14G20     N/A   WCI  19
* ESSEX        N/A       26   7  44 E4G14      N/A
* LINCOLN      N/A       28  20  72 NE13G22    N/A   WCI  17
* LOOKOUT PASS N/A       27  24  88 N2         N/A
* POLSON       N/A       28  25  89 N3         N/A
* RONAN APT    CLOUDY    28  25  89 NW5        N/A   WCI  22
* SEELEY LAKE  N/A       29  19  66 N4         N/A
* THOMP F APT  CLOUDY    40   5  23 S3G10      N/A
$$

MTZ008-052>055-022300-
SOUTHWEST MONTANA
CITY           SKY/WX    TMP DP  RH WIND       PRES   REMARKS
BOZEMAN        SUNNY     43   7  22 NW9       29.72F
DILLON         SUNNY     41   1  18 VRB6      29.65F
* W YELLOWSTON PTSUNNY   36   8  31 N3G9       N/A
* THREE FORKS  PTCLDY    43  10  26 N10        N/A
* BOULDER HILL N/A       23  15  71 N19G24     N/A   WCI   9
* MONIDA PASS  N/A       33   0  24 N6G14      N/A   WCI  27
* RAYNOLDS PAS N/A       41   9  27 E4         N/A
* WHITEHALL    N/A       45   6  20 NE9G20     N/A
* WISE RIVER   N/A       38   4  24 W5G15      N/A   WCI  34
$$

MTZ009>010-012-014-046-048-049-054-022300-
EAST SLOPES AND CENTRAL MONTANA
CITY           SKY/WX    TMP DP  RH WIND       PRES   REMARKS
CUT BANK       CLOUDY    19  10  68 N26G32    30.00R WCI   1
GREAT FALLS    LGT SNOW  25  21  85 N21G31    29.92R VSB 3/4  WCI  10
HELENA         LGT SNOW  30  23  75 N17       29.84R VSB 2    WCI  18
MALMSTROM AFB  LGT SNOW  27  23  85 N16G22    29.93R WCI  15
* DEARBORN     N/A       27  23  85 VRB12G17    N/A   WCI  16
* EAST GLACIER N/A       14   9  80 NE24G29    N/A   WCI  -5
* MONARCH      N/A       20  16  84 N9G21      N/A   WCI  10
* PENDROY      N/A       18  16  92 NE26G34    N/A
* ROGERS PASS  N/A       19  17  92 S6G12      N/A   WCI  11
* SWEET GRASS  N/A       18  12  77 N26G33     N/A
$$

MTZ011-013-016-021-035-040-045-047-050-051-022300-
NORTH CENTRAL MONTANA
CITY           SKY/WX    TMP DP  RH WIND       PRES   REMARKS
HAVRE          LGT SNOW  28  14  56 N16       29.96R WCI  16
LEWISTOWN      LGT SNOW  27  21  78 NW13      29.84R VSB 2    WCI  16
* N BAR RANCH  CLOUDY    27  19  72 NW15G24   29.82R WCI  15
* CHESTER      N/A       23  12  63 NE16G25    N/A   WCI  10
* DENTON       N/A       26  22  85 NW22       N/A   WCI  11
* GEYSER       N/A       25  19  78 N14G20     N/A   WCI  13
* JUDITH GAP   N/A       24  23  96 N27G35     N/A   WCI   7
* LOMA         N/A       29  16  58 NW26G32    N/A   WCI  14
$$

MTZ017>020-022>027-061-062-022300-
NORTHEAST MONTANA
CITY           SKY/WX    TMP DP  RH WIND       PRES   REMARKS
GLASGOW        CLOUDY    32  19  59 NW28G35   29.81R WCI  18
GLENDIVE       PTCLDY    45  14  28 W20       29.74R
JORDAN         PTCLDY    37  19  48 NW18G29   29.82R WCI  27
SIDNEY         SUNNY     43  16  34 W20       29.75F
WOLF POINT     CLOUDY    39  19  45 NW24G33   29.76S WCI  28
* BEAVER HILL  N/A       41  13  32 W12G20     N/A
* CIRCLE       N/A       38  24  57 W13G23     N/A   WCI  30
* LINDSAY DVD  N/A       40  14  35 W21G27     N/A   WCI  30
* NAVAJO       N/A       27  19  72 NW26G33    N/A   WCI  12
* SACO         N/A       31  17  56 NW25G30    N/A   WCI  17
$$

MTZ028>042-056>058-022300-
SOUTHCENTRAL AND SOUTHEAST MONTANA
CITY           SKY/WX    TMP DP  RH WIND       PRES   REMARKS
BAKER          PTCLDY    43  16  34 NW13      29.74R
BILLINGS       PTSUNNY   46   5  18 CALM      29.71F
LIVINGSTON     PTCLDY    43  10  26 NW8       29.69F
MILES CITY     PTSUNNY   45  16  31 NW20G26   29.75R
* LAUREL APT   PTCLDY    46   9  22 N/A        N/A
* ROUNDUP APT  PTCLDY    37  16  42 NW20G31    N/A   WCI  27
* ALZADA       N/A       43  13  29 W4         N/A
* HYSHAM       N/A       41  11  29 VRB8       N/A
* LAME DEER    N/A       36  11  35 N13        N/A   WCI  27
* REED POINT   N/A       46  14  27 VRB8G13    N/A
$$

REGIONAL REPORTS...DAKOTAS
CITY           SKY/WX    TMP DP  RH WIND       PRES   REMARKS
WILLISTON      PTCLDY    39  19  45 W16       29.72S WCI  30
DICKINSON      PTCLDY    43  12  28 W15       29.69F
CROSBY         SUNNY     32  18  56 W13       29.73R WCI  22
WATFORD CITY   SUNNY     37  18  46 W12G20    29.69F WCI  29
BISMARCK       PTCLDY    41  21  45 S16       29.79F
GRAND FORKS    PTCLDY    30  18  61 S22G31    29.97F WCI  17
FARGO          PTSUNNY   32  16  52 S25G39    30.01F WCI  19
BUFFALO SD     CLOUDY    45  18  34 SW7       29.67F
RAPID CITY     PTSUNNY   46  25  44 S13       29.71F
$$

REGIONAL REPORTS...WYOMING/IDAHO/WASHINGTON
CITY           SKY/WX    TMP DP  RH WIND       PRES   REMARKS
GILLETTE       PTSUNNY   43  10  26 N8        29.70F
SHERIDAN       PTSUNNY   41  10  28 SW5       29.72F
CODY           PTSUNNY   37  19  48 N9        29.69R WCI  30
YELLOWSTONE LA PTSUNNY   28   3  34 E5        29.65F WCI  22
SALMON         PTSUNNY   43  10  26 CALM      29.68F
MULLAN PASS    SNOW      21  19  92 CALM      29.71S VSB 1/2
SAND POINT     CLOUDY    36  25  64 NE6       29.88F WCI  31
SPOKANE        PTSUNNY   39  23  53 VRB5      29.86F WCI  35
$$

REGIONAL REPORTS...SASKATCHEWAN
CITY           SKY/WX    TMP DP  RH WIND       PRES   REMARKS
SWIFT CURRENT  LGT SNOW  16  12  84 NW25G37   29.88R VSB 1 1/4 WCI  -3
REGINA         LGT SNOW  18  14  84 NW29      29.76R WCI  -1

$$




USA.gov is the U.S. government's official web portal to all federal, state and local government web resources and services.